TimeEDT,TemperatureF,Dew PointF,Humidity,Sea Level PressureIn,VisibilityMPH,Wind Direction,Wind SpeedMPH,Gust SpeedMPH,PrecipitationIn,Events,Conditions,WindDirDegrees,DateUTC
12:22 AM,62.6,59.0,88,29.92,10.0,NNE,6.9,-,N/A,,Mostly Cloudy,30,2013-06-19 04:22:00
12:51 AM,62.1,59.0,90,29.91,10.0,Calm,Calm,-,N/A,,Overcast,0,2013-06-19 04:51:00
1:51 AM,62.1,57.9,86,29.92,10.0,ENE,3.5,-,N/A,,Overcast,60,2013-06-19 05:51:00
2:51 AM,61.0,57.9,90,29.93,10.0,NE,4.6,-,N/A,,Overcast,40,2013-06-19 06:51:00
3:51 AM,61.0,57.9,90,29.93,10.0,East,4.6,-,N/A,,Overcast,90,2013-06-19 07:51:00
4:51 AM,59.0,55.9,90,29.94,10.0,Calm,Calm,-,N/A,,Clear,0,2013-06-19 08:51:00
5:51 AM,57.9,55.0,90,29.96,10.0,Calm,Calm,-,N/A,,Clear,0,2013-06-19 09:51:00
6:51 AM,61.0,57.0,87,29.98,10.0,NE,3.5,-,N/A,,Clear,40,2013-06-19 10:51:00
7:51 AM,64.0,55.0,73,30.01,10.0,NE,4.6,-,N/A,,Clear,50,2013-06-19 11:51:00
8:51 AM,66.0,53.1,63,30.05,10.0,NE,5.8,-,N/A,,Clear,50,2013-06-19 12:51:00
9:51 AM,68.0,51.1,55,30.06,10.0,NNE,12.7,-,N/A,,Clear,30,2013-06-19 13:51:00
10:51 AM,70.0,51.1,51,30.08,10.0,NNE,8.1,-,N/A,,Clear,20,2013-06-19 14:51:00
11:51 AM,73.0,52.0,48,30.08,10.0,East,5.8,-,N/A,,Partly Cloudy,90,2013-06-19 15:51:00
12:51 PM,73.9,51.1,45,30.08,10.0,NE,6.9,-,N/A,,Scattered Clouds,40,2013-06-19 16:51:00
1:51 PM,75.9,50.0,40,30.07,10.0,East,6.9,-,N/A,,Partly Cloudy,100,2013-06-19 17:51:00
2:51 PM,75.9,48.0,37,30.07,10.0,Calm,Calm,-,N/A,,Partly Cloudy,0,2013-06-19 18:51:00
3:51 PM,75.9,48.0,37,30.06,10.0,North,6.9,-,N/A,,Partly Cloudy,360,2013-06-19 19:51:00
4:51 PM,78.1,46.9,33,30.06,10.0,North,4.6,-,N/A,,Mostly Cloudy,360,2013-06-19 20:51:00
5:51 PM,77.0,46.9,34,30.06,10.0,NW,6.9,-,N/A,,Mostly Cloudy,310,2013-06-19 21:51:00
6:51 PM,75.0,46.0,36,30.07,10.0,West,6.9,-,N/A,,Clear,270,2013-06-19 22:51:00
7:51 PM,73.0,45.0,37,30.08,10.0,NW,4.6,-,N/A,,Clear,310,2013-06-19 23:51:00
8:51 PM,70.0,46.9,44,30.10,10.0,Calm,Calm,-,N/A,,Clear,0,2013-06-20 00:51:00
9:51 PM,64.0,48.9,58,30.13,10.0,Calm,Calm,-,N/A,,Clear,0,2013-06-20 01:51:00
10:51 PM,60.1,50.0,69,30.14,10.0,WNW,4.6,-,N/A,,Clear,290,2013-06-20 02:51:00
11:51 PM,60.1,50.0,69,30.16,10.0,Calm,Calm,-,N/A,,Clear,0,2013-06-20 03:51:00